Theta_e
313 313 312 312 312 311 311 311 310 310 310 312 313 314 316 315 315 316 318 319 318 318 320 321 321 321 320 319 318 317 316 317 317 316 316 317 317 317 316 314 308 301
313 312 312 312 311 311 311 311 310 310 309 310 312 314 315 315 315 316 317 318 318 318 320 322 321 320 319 318 318 316 316 315 315 316 316 316 317 317 316 314 309 302
313 312 312 312 311 311 310 310 310 310 309 309 312 314 315 315 315 317 317 317 319 320 321 321 320 319 319 319 318 317 316 315 314 314 315 316 317 317 316 314 310 304
313 313 312 311 311 310 310 310 310 310 309 309 312 313 315 316 315 316 317 318 320 321 321 321 320 319 319 319 318 317 316 315 313 314 314 315 316 316 315 314 311 307
313 313 312 312 311 310 310 310 309 310 309 309 312 313 314 315 315 316 317 317 320 321 320 320 320 319 320 319 318 317 315 314 313 314 315 315 316 316 314 313 311 309
314 313 313 312 311 310 310 310 309 309 309 309 311 312 312 312 313 315 316 316 317 319 320 320 320 319 319 319 317 316 315 313 313 314 315 315 316 315 314 312 310 309
314 313 313 312 312 311 311 310 310 309 309 308 309 310 310 310 311 314 315 316 316 317 318 319 320 319 319 318 317 315 315 313 312 314 315 315 315 315 314 313 311 308
314 314 313 312 312 312 311 311 310 309 309 309 309 309 309 310 312 313 315 317 317 317 317 318 319 319 318 317 316 315 314 313 312 313 315 315 315 315 314 313 312 309
314 314 313 313 312 312 312 311 311 310 309 309 309 309 309 309 311 312 314 316 317 317 317 318 318 317 317 316 315 314 314 313 312 312 313 314 314 315 315 313 312 310
314 314 313 313 313 312 312 311 311 310 309 309 309 309 309 309 309 310 312 315 316 316 317 317 317 317 316 316 314 313 313 312 312 311 313 314 313 314 315 314 313 311
314 313 313 313 313 312 312 311 311 310 309 309 308 308 309 309 308 309 312 315 316 317 317 317 317 316 315 314 314 313 312 311 312 312 313 314 314 314 314 313 312 310
314 313 313 313 313 312 312 311 311 311 310 309 308 308 309 308 307 308 311 314 315 316 316 315 316 316 315 314 313 313 312 311 311 313 314 314 314 314 314 313 312 311
314 314 313 312 312 312 312 311 311 311 310 309 308 307 308 308 307 307 310 312 313 313 314 314 314 314 315 315 314 313 313 311 310 312 313 313 313 314 313 312 310 309
314 314 313 312 312 312 311 311 311 310 310 310 309 307 307 307 307 307 308 311 312 312 313 314 314 314 314 314 314 313 313 312 310 311 312 313 313 312 311 310 307 305
314 313 313 312 312 311 311 311 311 311 310 309 309 308 307 307 307 306 307 309 311 312 312 313 314 314 315 314 314 313 313 312 311 311 312 312 312 310 308 306 304 303
314 314 313 312 312 311 311 311 310 310 310 309 309 309 308 307 306 306 307 307 309 311 312 312 312 313 314 314 314 313 312 312 311 311 312 312 312 310 308 305 303 303
314 314 314 313 313 312 311 310 310 309 309 309 309 309 308 307 306 305 306 307 307 308 309 310 312 312 313 313 314 312 312 311 311 311 312 312 312 312 310 308 306 304
314 314 314 313 313 312 311 310 309 309 309 309 309 308 308 308 306 306 306 306 307 307 308 310 312 312 313 314 313 312 312 311 309 310 312 312 311 311 310 309 307 304
313 313 313 313 312 312 311 310 309 309 309 309 309 308 308 307 307 306 305 305 306 307 307 308 311 312 313 313 313 312 312 311 310 310 311 311 310 309 309 308 306 303
312 312 312 313 312 311 310 310 310 310 309 309 308 308 307 307 307 307 306 305 306 306 307 307 309 311 312 312 312 311 311 310 310 310 310 310 309 309 309 308 306 302
311 311 311 312 312 311 310 310 310 310 309 308 308 307 307 307 306 306 306 305 305 305 307 307 308 309 311 312 311 310 310 310 309 309 309 309 308 307 307 306 304 301
311 311 310 311 311 310 311 311 310 309 308 307 307 307 306 306 306 306 305 305 304 304 305 306 307 308 309 310 310 310 310 310 309 309 309 308 308 307 305 303 301 298
311 311 310 310 310 310 310 310 309 308 307 306 306 306 306 305 305 305 305 305 304 304 304 305 306 307 307 308 309 309 309 308 309 309 308 308 308 307 306 304 301 297
311 310 310 310 309 309 309 309 308 308 307 305 305 305 305 305 304 304 304 304 304 304 303 304 304 305 306 307 308 308 308 307 307 308 308 308 308 307 306 305 302 297
310 310 310 310 309 309 308 307 307 307 306 305 304 304 304 303 303 303 303 303 303 303 303 303 303 303 304 305 306 307 307 306 306 306 306 307 307 306 305 303 300 295
309 309 309 309 309 308 308 307 306 306 305 304 303 303 303 302 302 302 302 302 302 302 302 302 302 302 303 304 305 306 305 305 305 305 304 304 305 305 305 302 298 294
Wind_Speed
22 24 25 27 28 28 29 30 30 32 34 36 37 37 38 38 37 38 41 41 39 37 38 41 42 40 39 38 37 37 37 38 39 39 40 44 42 40 41 41 38 37
21 23 25 26 28 29 29 30 31 31 33 34 36 36 37 36 35 36 37 37 37 37 39 41 40 38 38 38 38 37 36 36 38 39 43 45 43 42 43 40 38 37
21 22 24 26 27 28 29 30 31 32 32 33 34 35 36 36 35 36 37 35 36 40 42 41 39 38 39 39 39 38 36 34 35 39 44 45 44 45 43 40 39 38
21 22 23 25 26 28 29 30 31 32 31 32 33 33 34 36 37 37 36 35 38 42 43 40 38 39 40 41 40 39 37 35 34 37 42 44 45 46 43 41 40 39
21 22 23 24 26 27 29 30 31 31 32 33 33 33 34 37 37 35 35 36 39 42 42 39 39 41 42 42 42 41 39 36 36 38 42 44 46 46 43 42 42 40
22 22 23 24 26 27 29 30 31 31 33 33 33 34 35 35 35 35 36 37 38 40 42 41 41 44 45 44 43 42 39 36 37 40 42 44 45 46 45 44 43 42
22 22 23 24 26 27 28 30 31 32 32 33 33 34 34 34 34 35 37 39 39 40 42 43 45 47 47 45 43 41 39 37 38 41 44 45 45 45 46 46 45 44
23 23 23 24 25 27 28 29 30 32 32 33 34 34 34 34 35 36 38 40 40 41 43 45 48 49 46 44 42 40 40 39 39 43 46 47 46 45 45 46 45 45
26 25 24 24 25 26 27 29 30 31 32 34 35 35 35 35 36 38 40 41 42 44 45 46 47 47 45 43 42 40 39 39 40 44 46 48 50 48 46 47 45 45
29 28 26 25 26 26 27 28 30 31 33 35 36 37 37 36 36 37 39 41 43 44 45 44 45 45 44 43 42 40 38 38 41 45 46 47 48 47 46 47 47 46
29 30 29 28 27 27 28 28 30 31 33 35 37 38 38 37 35 36 39 41 43 43 43 41 42 45 45 43 43 41 37 38 42 46 48 48 48 48 48 49 49 47
29 30 31 31 29 28 28 29 30 31 32 35 37 38 37 37 37 37 39 42 43 43 43 42 42 44 45 44 43 41 38 39 44 48 50 50 49 48 49 50 48 46
27 28 31 32 32 30 29 30 31 31 32 34 36 38 38 38 39 39 41 43 44 45 46 46 45 45 46 46 44 42 41 40 43 48 51 51 50 48 49 49 47 46
26 28 30 32 33 32 31 31 32 33 33 33 35 37 39 40 40 41 42 44 45 46 46 47 47 47 48 49 46 44 43 41 42 47 51 52 51 49 48 47 46 46
25 26 28 30 32 33 33 33 33 34 35 35 35 36 39 41 42 42 43 44 46 47 47 47 49 49 49 48 47 45 44 42 43 48 51 51 50 48 47 47 46 46
26 26 27 28 30 32 33 34 34 35 36 36 36 36 37 40 43 45 45 45 46 48 49 50 51 50 48 49 49 47 44 43 44 48 51 52 51 49 49 48 47 47
26 27 27 28 28 29 31 33 34 36 37 37 37 37 37 38 41 45 46 46 46 47 49 51 51 50 49 48 47 44 42 42 44 48 52 53 52 51 51 50 49 48
25 26 27 28 28 28 29 31 34 36 37 38 39 39 38 38 40 43 45 47 47 46 47 50 52 51 49 47 47 46 46 46 46 50 54 53 53 53 53 52 51 50
24 25 26 27 27 27 28 31 33 35 36 38 39 39 39 40 40 41 43 46 49 48 47 49 52 52 49 49 49 50 49 47 46 50 52 51 50 51 51 51 51 50
23 25 26 26 26 27 29 31 33 35 36 37 38 39 40 41 41 41 42 44 47 50 50 49 50 52 52 51 51 49 47 44 44 48 50 49 49 49 49 49 50 50
24 26 27 27 28 28 30 31 33 34 35 36 38 40 41 41 41 42 42 43 44 48 52 52 51 51 53 53 52 48 45 44 45 48 50 49 49 49 49 49 49 49
26 27 28 28 29 30 31 32 33 34 35 36 38 40 41 41 42 42 43 43 43 44 49 54 53 51 52 54 52 48 45 46 48 49 50 50 49 49 49 50 49 48
29 30 30 29 29 31 32 33 34 34 35 35 37 39 40 41 42 42 43 44 44 44 46 50 52 52 51 52 52 50 48 48 50 51 51 51 50 49 48 48 48 48
32 33 33 32 31 31 32 32 33 34 35 35 36 38 39 40 41 41 42 44 45 45 45 47 49 50 50 50 51 50 50 51 52 53 54 53 52 50 48 48 48 47
33 34 35 35 35 34 32 32 32 33 34 34 35 37 38 39 40 41 43 44 45 46 46 47 48 48 49 50 50 50 51 53 54 56 57 55 53 51 49 49 49 48
32 34 36 36 37 36 34 33 33 33 33 34 35 36 37 38 39 41 43 44 45 46 46 47 48 47 48 50 51 51 52 55 57 58 58 56 52 50 49 50 51 49
Wind_Direction
276 273 271 271 270 269 267 263 259 254 248 241 239 239 238 238 236 231 229 230 232 233 234 234 232 227 225 227 230 231 231 232 234 236 237 234 230 234 235 229 226 226
278 275 272 271 269 269 268 264 261 257 251 244 238 237 239 241 239 236 233 232 233 235 234 233 231 228 227 230 232 232 232 235 237 236 237 234 229 234 235 228 224 224
281 277 275 273 272 271 270 268 263 258 253 246 238 235 237 241 241 238 237 236 237 238 233 228 228 231 235 236 236 237 236 241 243 238 236 234 231 235 234 228 225 224
286 282 279 277 275 273 271 270 264 258 253 246 238 234 234 238 240 238 235 237 239 238 233 228 229 233 236 237 238 239 238 242 245 238 233 231 231 235 233 227 225 225
290 285 283 280 277 275 271 269 265 257 252 247 240 235 233 235 238 234 231 237 240 237 232 230 234 236 237 239 241 240 238 239 239 234 232 231 231 235 233 226 225 227
292 288 286 283 280 277 273 270 266 258 252 248 243 238 235 236 236 231 231 236 238 237 235 235 238 239 238 239 241 239 236 239 239 232 233 236 235 234 231 226 227 228
294 291 287 285 283 280 276 273 268 261 254 249 245 242 240 239 236 233 234 236 236 237 238 238 240 240 239 238 240 239 236 238 239 235 233 236 235 232 229 227 229 230
292 289 285 283 283 281 278 275 270 264 256 250 247 245 243 240 236 235 236 237 237 237 239 242 241 240 238 237 239 239 237 236 239 240 238 234 232 231 231 230 232 233
290 287 284 282 282 281 280 277 272 267 259 252 249 249 248 243 239 237 236 236 237 238 242 245 243 239 237 237 238 240 241 240 240 243 242 236 230 229 232 233 233 235
291 288 286 285 283 281 281 279 275 269 261 254 251 251 251 249 244 239 236 236 239 240 242 243 241 238 238 238 239 240 245 246 243 242 243 240 233 229 231 234 235 237
296 292 289 288 285 283 283 281 277 271 264 258 254 252 251 250 247 241 235 236 239 241 241 241 241 240 238 238 240 240 247 252 246 242 243 243 238 234 233 235 236 237
302 297 293 291 289 287 285 283 280 275 268 262 257 254 252 249 246 242 237 237 239 240 242 243 245 245 242 240 241 242 247 252 247 243 244 243 240 240 239 236 235 236
305 303 298 293 291 290 287 284 281 279 274 268 262 257 253 251 248 244 241 240 240 240 243 245 245 246 246 244 244 245 246 250 248 245 245 244 241 241 243 240 237 239
305 304 300 296 293 291 289 285 282 280 278 275 269 262 257 253 250 248 244 243 243 243 245 247 245 244 244 242 242 244 244 246 248 246 245 245 241 239 241 241 240 241
303 301 299 297 294 291 290 287 283 281 280 278 275 269 263 256 252 250 248 245 245 245 245 247 247 247 247 243 240 243 246 247 249 248 245 244 242 240 240 240 240 240
299 300 300 298 295 293 291 289 285 282 279 278 278 276 271 263 255 251 250 248 247 246 246 246 245 246 248 247 243 242 245 247 250 250 248 244 242 243 242 240 239 239
298 299 299 298 297 296 294 292 288 284 281 280 279 278 276 271 261 255 252 250 249 249 247 245 244 245 247 248 245 243 245 249 252 253 250 246 242 243 243 242 240 239
302 299 298 297 297 298 296 294 290 285 283 281 280 280 278 274 269 263 257 253 252 252 249 245 246 248 246 243 244 248 250 252 254 254 250 246 243 243 243 243 241 239
305 302 300 299 298 297 295 292 289 286 285 283 282 282 278 274 273 270 264 257 252 252 252 249 248 250 249 243 242 246 248 249 252 253 249 245 244 244 244 244 242 239
306 302 299 298 297 296 293 290 288 286 286 285 283 281 277 275 274 272 269 264 257 252 252 253 252 251 252 249 245 245 245 246 251 254 251 247 245 245 246 246 244 240
309 303 299 296 294 292 290 289 287 286 286 285 284 281 279 278 276 273 271 269 264 257 253 253 254 253 253 253 249 244 244 247 250 253 253 250 247 246 246 246 245 241
308 305 301 298 295 291 289 287 287 287 287 287 285 283 281 279 276 274 272 269 268 264 257 254 255 255 256 256 251 243 242 247 249 250 251 252 251 249 247 246 244 241
306 303 302 300 296 293 291 290 289 289 289 288 286 283 282 280 278 276 274 272 269 267 263 258 256 255 256 257 252 243 240 243 246 246 248 250 252 252 251 249 245 241
305 302 301 299 297 295 294 292 291 291 291 290 287 285 283 282 281 279 276 274 271 269 267 265 262 259 258 258 255 247 241 241 244 245 245 247 249 248 249 248 244 239
303 300 299 298 297 297 295 292 291 290 290 289 287 285 284 283 281 279 276 274 273 271 270 268 266 264 260 259 259 253 246 243 243 243 243 244 244 244 244 244 240 235
305 300 297 296 296 296 294 291 289 287 287 287 286 286 285 283 280 278 277 275 274 273 271 269 268 267 263 261 260 257 252 247 244 243 244 244 243 243 244 243 238 233